Location: Biltmore Gardens
(41.6070°N, 83.4666°W)
Time: 15:22:56
(UTC+00:00)

BREEZE-M DEB (TANK) - Pass Details

Date: 14 July 2020
Orbit: 275 x 20501 km, 49.2° (Epoch: 13 August)

Event Time Altitude Azimuth Distance (km) Brightness Sun altitude
Rises 01:31:52 0° 225° (SW) 7,665 8.8 -4.7°
Reaches altitude 10° 01:39:16 10° 223° (SW) 4,476 7.5 -5.8°
Maximum altitude 01:47:33 48° 151° (SSE) 878 3.5 -7.1°
Drops below altitude 10° 01:50:16 10° 74° (ENE) 1,491 4.7 -7.5°
Sets 01:51:34 0° 67° (ENE) 2,117 5.5 -7.7°
